#timestamp,LO_Frequency,Hit 
1506117615.0,286047007.6,N
1506117615.9,286047007.6,N
1506117635.8,286047005.9,N
1506117655.6,286047002.9,N
1506117675.4,286047004.5,N
1506117695.3,286047004.6,N
1506117715.1,286047005.4,N
1506117716.0,286047005.4,N
1506117735.8,286047003.0,N
1506117755.7,286047007.5,N
1506117775.5,286047005.3,N
1506117795.3,286047002.9,N
1506117815.2,286047003.3,N
1506117835.9,286047001.7,N
1506117855.7,286047002.4,N
1506117875.5,286047004.4,N
1506117895.4,286047005.6,N
1506117915.2,286047004.0,N
1506117935.0,286047001.3,N
1506117935.9,286047001.3,N
1506117955.8,286047004.2,N
1506117975.6,286047004.1,N
1506117995.4,286047002.9,N
1506118015.3,286047006.7,P
1506118035.1,286047000.5,N
1506118055.8,286046998.4,N
1506118075.7,286047000.5,N
1506118095.5,286047002.4,N
1506118115.3,286047001.8,N
1506118135.2,286047002.8,N
1506118155.9,286047000.0,N
1506118175.7,286047000.7,N
1506118195.6,286047001.7,N
1506118215.4,286047001.5,N
1506118235.2,286046999.9,N
1506118255.0,286047000.9,N
1506118256.0,286047000.9,N
1506118275.8,286047000.4,N
1506118295.6,286047000.7,N
1506118315.4,286046999.0,N
1506118335.3,286047001.1,N
1506118355.1,286046999.8,N
1506118375.8,286046999.7,N
1506118395.7,286047002.1,N
1506118415.5,286047001.9,N
1506118435.3,286047003.8,N
1506118455.2,286047004.3,N
1506118475.9,286047004.2,N
1506118495.7,286047002.2,N
1506118515.6,286047001.4,N
1506118535.4,286047001.8,N
1506118555.2,286047002.1,N
1506118575.0,286047000.2,N
1506118575.9,286047000.2,N
1506118595.8,286046999.0,N
1506118615.6,286046995.7,P
1506118635.5,286046995.2,N
1506118655.3,286046997.7,N
1506118675.1,286046997.5,N
1506118695.8,286046997.3,N
1506118715.7,286046997.7,N
1506118735.5,286046995.4,N
1506118755.3,286046995.1,N
1506118775.2,286046997.2,N
1506118795.9,286046998.0,N
1506118815.7,286046997.1,N
1506118835.6,286046997.2,N
1506118855.4,286046995.5,N
1506118875.2,286046994.9,P
1506118895.1,286047000.8,N
1506118896.0,286047000.8,N
1506118915.8,286046998.8,N
1506118935.6,286046998.2,N
1506118955.5,286047002.8,N
1506118975.3,286047002.6,N
1506118995.1,286047005.8,N
1506119015.9,286047003.3,N
1506119035.7,286047002.0,N
1506119055.5,286047001.6,N
1506119075.4,286047001.4,N
1506119095.2,286047005.7,N
1506119115.0,286047002.9,N
1506119115.9,286047002.9,N
1506119135.8,286047001.9,N
1506119155.6,286047001.7,N
1506119175.4,286047007.2,N
1506119195.2,286047006.4,N
1506119215.1,286047006.4,N
1506119216.0,286047006.4,N
1506119235.8,286047008.0,N
1506119255.6,286047006.8,N
1506119275.5,286047006.6,N
1506119295.3,286047004.9,N
1506119315.1,286047003.8,N
1506119335.9,286047004.2,N
1506119355.7,286047006.0,N
1506119375.5,286047006.0,N
1506119395.4,286047005.1,N
1506119415.2,286047008.0,N
1506119435.0,286047008.3,P
1506119435.9,286047008.3,P
1506119455.8,286047005.5,N
1506119475.6,286047004.0,N
1506119495.4,286047003.2,N
1506119515.3,286047001.3,N
1506119535.1,286047002.0,N
1506119536.0,286047002.0,N
1506119555.8,286047001.7,N
1506119575.7,286047003.7,N
1506119595.5,286047004.8,N
1506119615.3,286047002.8,N
1506119635.1,286047000.3,N
1506119655.9,286047004.2,N
1506119675.7,286047004.7,N
1506119695.6,286047010.8,P
1506119715.4,286047001.3,N
1506119735.2,286047001.2,N
1506119755.0,286046998.6,N
1506119755.9,286046998.6,N
1506119775.8,286046998.1,N
1506119795.6,286046998.9,N
1506119815.4,286046998.9,N
1506119835.3,286046998.2,N
1506119855.1,286047002.3,N
1506119875.8,286047000.1,N
1506119895.7,286046998.6,N
1506119915.5,286046998.2,N
1506119935.3,286047000.7,N
1506119955.2,286046998.7,N
1506119975.9,286046999.0,N
1506119995.7,286047002.7,N
1506120015.5,286046999.7,N
1506120035.4,286046999.9,N
1506120055.2,286047001.8,N
1506120075.0,286047000.2,N
1506120075.9,286047000.2,N
1506120095.8,286046998.6,N
1506120115.6,286047001.1,N
1506120135.4,286047001.4,N
1506120155.3,286047001.3,N
1506120175.1,286047000.7,N
1506120176.0,286047000.7,N
1506120195.8,286046998.1,N
1506120215.7,286047000.6,N
1506120235.5,286046998.2,N
1506120255.3,286046999.2,N
1506120275.2,286047000.5,N
1506120295.9,286047001.9,N
1506120315.7,286047001.3,N
1506120335.6,286047003.4,N
1506120355.4,286047004.4,P
1506120375.2,286047002.7,N
1506120395.1,286047001.1,N
1506120396.0,286047001.1,N
1506120415.8,286046999.9,N
1506120435.6,286047002.6,N
1506120455.5,286047003.7,N
1506120475.3,286047004.7,P
1506120495.1,286047003.8,N
1506120515.9,286046999.9,N
1506120535.7,286047001.0,N
1506120555.5,286046998.2,N
1506120575.4,286046998.9,N
1506120595.2,286047000.4,N
1506120615.0,286047000.6,N
1506120615.9,286047000.6,N
1506120635.8,286046999.0,N
1506120655.6,286046997.5,N
1506120675.4,286046999.0,N
1506120695.2,286047001.0,N
1506120715.1,286047000.9,N
1506120716.0,286047000.9,N
1506120735.8,286047002.6,N
1506120755.6,286046998.6,N
1506120775.5,286046999.4,N
1506120795.3,286046998.7,N
1506120815.1,286047000.5,N
1506120835.9,286046998.1,N
1506120855.7,286047000.2,N
1506120875.5,286047002.3,N
1506120895.4,286046999.0,N
1506120915.2,286046997.4,N
1506120935.0,286046998.2,N
1506120935.9,286046998.2,N
1506120955.7,286047000.4,N
1506120975.6,286047002.6,N
1506120995.4,286047002.8,N
1506121015.2,286046999.8,N
1506121035.1,286047002.1,N
1506121036.0,286047002.1,N
1506121055.8,286047002.5,N
1506121075.6,286047004.3,N
1506121095.5,286047001.3,N
1506121115.3,286047002.5,N
1506121135.1,286047001.4,N
1506121155.9,286047002.5,N
1506121175.7,286047000.4,N
1506121195.5,286047002.4,N
